TimeEDT,TemperatureF,Dew PointF,Humidity,Sea Level PressureIn,VisibilityMPH,Wind Direction,Wind SpeedMPH,Gust SpeedMPH,PrecipitationIn,Events,Conditions,WindDirDegrees,DateUTC
12:53 AM,54.0,39.0,57,29.88,10.0,NW,4.6,-,N/A,,Clear,320,2012-10-16 04:53:00
1:53 AM,52.0,39.0,61,29.89,10.0,NW,5.8,-,N/A,,Clear,310,2012-10-16 05:53:00
2:53 AM,48.9,39.0,69,29.89,10.0,Calm,Calm,-,N/A,,Clear,0,2012-10-16 06:53:00
3:53 AM,46.0,39.0,76,29.90,10.0,WNW,3.5,-,N/A,,Clear,300,2012-10-16 07:53:00
4:53 AM,45.0,39.9,82,29.91,10.0,WSW,3.5,-,N/A,,Clear,240,2012-10-16 08:53:00
6:53 AM,43.0,39.9,89,29.93,10.0,SW,5.8,-,N/A,,Clear,230,2012-10-16 10:53:00
8:53 AM,48.0,44.1,86,29.96,10.0,Calm,Calm,-,N/A,,Clear,0,2012-10-16 12:53:00
9:53 AM,55.0,45.0,69,29.96,10.0,SW,3.5,-,N/A,,Clear,230,2012-10-16 13:53:00
10:53 AM,59.0,39.9,49,29.96,10.0,Calm,Calm,-,N/A,,Clear,0,2012-10-16 14:53:00
11:53 AM,62.1,42.1,48,29.95,10.0,Variable,3.5,-,N/A,,Clear,0,2012-10-16 15:53:00
12:53 PM,64.9,42.1,43,29.94,10.0,West,9.2,-,N/A,,Clear,280,2012-10-16 16:53:00
1:53 PM,66.0,42.1,42,29.90,10.0,Variable,4.6,-,N/A,,Clear,0,2012-10-16 17:53:00
2:53 PM,68.0,41.0,37,29.88,10.0,NNW,5.8,-,N/A,,Clear,340,2012-10-16 18:53:00
3:53 PM,69.1,43.0,39,29.88,10.0,West,4.6,-,N/A,,Clear,260,2012-10-16 19:53:00
4:53 PM,68.0,41.0,37,29.86,10.0,Calm,Calm,-,N/A,,Clear,0,2012-10-16 20:53:00
5:53 PM,66.0,44.1,45,29.86,10.0,South,3.5,-,N/A,,Clear,180,2012-10-16 21:53:00
6:53 PM,55.0,46.9,74,29.88,10.0,SE,3.5,-,N/A,,Clear,130,2012-10-16 22:53:00
7:53 PM,53.1,46.0,77,29.89,10.0,Calm,Calm,-,N/A,,Clear,0,2012-10-16 23:53:00
8:53 PM,52.0,46.9,83,29.89,10.0,ENE,3.5,-,N/A,,Clear,70,2012-10-17 00:53:00
9:53 PM,48.0,44.1,86,29.90,10.0,Calm,Calm,-,N/A,,Clear,0,2012-10-17 01:53:00
10:53 PM,46.9,44.1,90,29.90,10.0,Calm,Calm,-,N/A,,Clear,0,2012-10-17 02:53:00
11:53 PM,46.9,44.1,90,29.92,10.0,West,3.5,-,N/A,,Clear,260,2012-10-17 03:53:00